When you browse on this site, cookies collect data to enhance your experience and personalize the content and advertising you see.
Visit our Privacy Policy to learn more. By continuing to use the site, you agree to this use of cookies and data.
  • In Spain
  • List of Countries
  • For 7 days
  • Water Temperature
  • Weather Map
  • Weather Widgets
  • user-avatar
    Login

    Hourly Weather Taba

    Today, 20 October, Sunday

    Time Temperature Precipitation Wind Pressure Humidity
    00:00 +19°C° 0 mm 2 mps 695 mmHg 60%
    01:00 +19°C° 0 mm 2 mps 695 mmHg 59%
    02:00 +19°C° 0 mm 2 mps 694 mmHg 57%
    03:00 +18°C° 0 mm 2 mps 694 mmHg 56%
    04:00 +18°C° 0 mm 2 mps 694 mmHg 56%
    05:00 +18°C° 0 mm 2 mps 694 mmHg 55%
    06:00 +19°C° 0 mm 2 mps 695 mmHg 49%
    07:00 +21°C° 0 mm 2 mps 695 mmHg 43%
    08:00 +24°C° 0 mm 2 mps 695 mmHg 37%
    09:00 +26°C° 0 mm 3 mps 696 mmHg 32%
    10:00 +27°C° 0 mm 4 mps 696 mmHg 26%
    11:00 +29°C° 0 mm 5 mps 696 mmHg 21%
    12:00 +29°C° 0 mm 6 mps 696 mmHg 21%
    13:00 +30°C° 0 mm 6 mps 695 mmHg 20%
    14:00 +30°C° 0 mm 7 mps 695 mmHg 20%
    15:00 +29°C° 0 mm 7 mps 695 mmHg 23%
    16:00 +28°C° 0 mm 6 mps 695 mmHg 25%
    17:00 +26°C° 0 mm 6 mps 694 mmHg 28%
    18:00 +25°C° 0 mm 5 mps 695 mmHg 33%
    19:00 +23°C° 0 mm 5 mps 695 mmHg 38%
    20:00 +22°C° 0 mm 4 mps 695 mmHg 43%
    21:00 +21°C° 0 mm 4 mps 695 mmHg 46%
    22:00 +21°C° 0 mm 3 mps 695 mmHg 48%
    23:00 +20°C° 0 mm 3 mps 695 mmHg 51%

    Tomorrow, 21 October, Monday

    Time Temperature Precipitation Wind Pressure Humidity
    00:00 +20°C° 0 mm 2 mps 694 mmHg 51%
    01:00 +19°C° 0 mm 2 mps 694 mmHg 52%
    02:00 +19°C° 0 mm 2 mps 693 mmHg 52%
    03:00 +19°C° 0 mm 2 mps 693 mmHg 51%
    04:00 +20°C° 0 mm 1 mps 693 mmHg 50%
    05:00 +19°C° 0 mm 1 mps 693 mmHg 49%
    06:00 +21°C° 0 mm 1 mps 693 mmHg 44%
    07:00 +23°C° 0 mm 1 mps 694 mmHg 40%
    08:00 +24°C° 0 mm 1 mps 694 mmHg 35%
    09:00 +26°C° 0 mm 2 mps 694 mmHg 32%
    10:00 +27°C° 0 mm 2 mps 694 mmHg 30%
    11:00 +28°C° 0 mm 3 mps 694 mmHg 27%
    12:00 +29°C° 0 mm 3 mps 693 mmHg 27%
    13:00 +29°C° 0 mm 3 mps 693 mmHg 26%
    14:00 +30°C° 0 mm 4 mps 692 mmHg 25%
    15:00 +29°C° 0 mm 4 mps 692 mmHg 27%
    16:00 +28°C° 0 mm 4 mps 692 mmHg 29%
    17:00 +27°C° 0 mm 4 mps 691 mmHg 31%
    18:00 +26°C° 0 mm 4 mps 691 mmHg 34%
    19:00 +25°C° 0 mm 3 mps 691 mmHg 37%
    20:00 +22°C° 0 mm 3 mps 691 mmHg 39%
    21:00 +23°C° 0 mm 2 mps 691 mmHg 41%
    22:00 +21°C° 0 mm 2 mps 691 mmHg 42%
    23:00 +22°C° 0 mm 1 mps 691 mmHg 43%

    Day after tomorrow, 22 October, Tuesday

    Time Temperature Precipitation Wind Pressure Humidity
    00:00 +22°C° 0 mm 1 mps 690 mmHg 44%
    01:00 +21°C° 0 mm 1 mps 690 mmHg 44%
    02:00 +21°C° 0 mm 1 mps 689 mmHg 44%
    03:00 +21°C° 0 mm 1 mps 689 mmHg 45%
    04:00 +21°C° 0 mm 1 mps 689 mmHg 45%
    05:00 +20°C° 0 mm 1 mps 689 mmHg 45%
    06:00 +22°C° 0 mm 1 mps 690 mmHg 42%
    07:00 +23°C° 0 mm 2 mps 690 mmHg 38%
    08:00 +25°C° 0 mm 2 mps 691 mmHg 35%
    09:00 +26°C° 0 mm 3 mps 691 mmHg 32%
    10:00 +27°C° 0 mm 3 mps 691 mmHg 29%
    11:00 +29°C° 0 mm 4 mps 691 mmHg 26%
    12:00 +29°C° 0 mm 4 mps 691 mmHg 24%
    13:00 +29°C° 0 mm 4 mps 690 mmHg 23%
    14:00 +30°C° 0 mm 5 mps 690 mmHg 21%
    15:00 +27°C° 0 mm 6 mps 690 mmHg 37%
    16:00 +23°C° 0 mm 7 mps 690 mmHg 52%
    17:00 +21°C° 0 mm 9 mps 690 mmHg 68%
    18:00 +20°C° 0 mm 7 mps 690 mmHg 71%
    19:00 +19°C° 0 mm 5 mps 690 mmHg 74%
    20:00 +18°C° 0 mm 4 mps 690 mmHg 78%
    21:00 +18°C° 0 mm 3 mps 690 mmHg 78%
    22:00 +17°C° 0 mm 2 mps 690 mmHg 78%
    23:00 +17°C° 0 mm 2 mps 690 mmHg 78%

    23 October, Wednesday

    Time Temperature Precipitation Wind Pressure Humidity
    00:00 +17°C° 0 mm 2 mps 690 mmHg 81%
    01:00 +16°C° 0 mm 2 mps 690 mmHg 83%
    02:00 +16°C° 0 mm 2 mps 690 mmHg 86%
    03:00 +15°C° 0 mm 2 mps 690 mmHg 87%
    04:00 +15°C° 0 mm 2 mps 690 mmHg 89%
    05:00 +15°C° 0 mm 2 mps 690 mmHg 90%
    06:00 +16°C° 0 mm 1 mps 690 mmHg 84%
    07:00 +18°C° 0 mm 1 mps 691 mmHg 78%
    08:00 +19°C° 0 mm 1 mps 691 mmHg 72%
    09:00 +20°C° 0 mm 1 mps 691 mmHg 63%
    10:00 +22°C° 0 mm 1 mps 691 mmHg 54%
    11:00 +23°C° 0 mm 1 mps 691 mmHg 45%
    12:00 +24°C° 0 mm 2 mps 691 mmHg 40%
    13:00 +25°C° 0 mm 2 mps 691 mmHg 36%
    14:00 +26°C° 0 mm 3 mps 691 mmHg 31%
    15:00 +25°C° 0 mm 3 mps 691 mmHg 34%
    16:00 +23°C° 0 mm 4 mps 691 mmHg 37%
    17:00 +22°C° 0 mm 4 mps 691 mmHg 39%
    18:00 +21°C° 0 mm 4 mps 691 mmHg 46%
    19:00 +20°C° 0 mm 4 mps 691 mmHg 53%
    20:00 +19°C° 0 mm 4 mps 691 mmHg 60%
    21:00 +18°C° 0 mm 3 mps 691 mmHg 64%
    22:00 +18°C° 0 mm 2 mps 691 mmHg 69%
    23:00 +17°C° 0 mm 2 mps 691 mmHg 73%

    24 October, Thursday

    Time Temperature Precipitation Wind Pressure Humidity
    00:00 +17°C° 0 mm 2 mps 691 mmHg 75%
    01:00 +16°C° 0 mm 1 mps 691 mmHg 77%
    02:00 +16°C° 0 mm 1 mps 690 mmHg 79%
    03:00 +16°C° 0 mm 1 mps 690 mmHg 80%
    04:00 +15°C° 0 mm 1 mps 690 mmHg 80%
    05:00 +15°C° 0 mm 1 mps 690 mmHg 81%
    06:00 +16°C° 0 mm 1 mps 691 mmHg 73%
    07:00 +19°C° 0 mm 1 mps 691 mmHg 66%
    08:00 +20°C° 0 mm 1 mps 692 mmHg 59%
    09:00 +21°C° 0 mm 1 mps 692 mmHg 50%
    10:00 +23°C° 0 mm 1 mps 692 mmHg 41%
    11:00 +24°C° 0 mm 2 mps 692 mmHg 32%
    12:00 +24°C° 0 mm 2 mps 692 mmHg 29%
    13:00 +25°C° 0 mm 2 mps 691 mmHg 27%
    14:00 +26°C° 0 mm 3 mps 691 mmHg 25%
    15:00 +25°C° 0 mm 3 mps 691 mmHg 26%
    16:00 +24°C° 0 mm 3 mps 691 mmHg 27%
    17:00 +24°C° 0 mm 3 mps 691 mmHg 29%
    18:00 +22°C° 0 mm 3 mps 691 mmHg 32%
    19:00 +20°C° 0 mm 3 mps 691 mmHg 36%
    20:00 +19°C° 0 mm 3 mps 691 mmHg 39%
    21:00 +19°C° 0 mm 2 mps 691 mmHg 41%
    22:00 +18°C° 0 mm 2 mps 691 mmHg 44%
    23:00 +18°C° 0 mm 2 mps 691 mmHg 46%

    25 October, Friday

    Time Temperature Precipitation Wind Pressure Humidity
    00:00 +17°C° 0 mm 2 mps 691 mmHg 48%
    01:00 +18°C° 0 mm 1 mps 691 mmHg 51%
    02:00 +16°C° 0 mm 1 mps 690 mmHg 53%
    03:00 +16°C° 0 mm 1 mps 690 mmHg 56%
    04:00 +15°C° 0 mm 1 mps 690 mmHg 58%
    05:00 +15°C° 0 mm 1 mps 690 mmHg 60%
    06:00 +15°C° 0 mm 0 mps 691 mmHg 54%
    07:00 +17°C° 0 mm 0 mps 691 mmHg 49%
    08:00 +19°C° 0 mm 0 mps 692 mmHg 44%
    09:00 +22°C° 0 mm 1 mps 692 mmHg 39%
    10:00 +23°C° 0 mm 1 mps 692 mmHg 34%
    11:00 +24°C° 0 mm 1 mps 692 mmHg 29%
    12:00 +25°C° 0 mm 2 mps 692 mmHg 27%
    13:00 +26°C° 0 mm 3 mps 692 mmHg 26%
    14:00 +26°C° 0 mm 3 mps 691 mmHg 24%
    15:00 +25°C° 0 mm 3 mps 691 mmHg 27%
    16:00 +24°C° 0 mm 3 mps 691 mmHg 30%
    17:00 +23°C° 0 mm 2 mps 691 mmHg 32%
    18:00 +21°C° 0 mm 2 mps 691 mmHg 37%
    19:00 +20°C° 0 mm 2 mps 691 mmHg 41%
    20:00 +19°C° 0 mm 3 mps 691 mmHg 45%
    21:00 +18°C° 0 mm 2 mps 691 mmHg 51%
    22:00 +18°C° 0 mm 2 mps 691 mmHg 57%
    23:00 +17°C° 0 mm 2 mps 691 mmHg 62%
    Show more